Location: College Park
(38.9810°N, 76.9370°W)
Time: 01:38:38
(UTC-05:00)

N. Korean satellite - Pass Details

Date: 13 November 2017
Orbit: 460 x 514 km, 97.2° (Epoch: 20 November)

Event Time Altitude Azimuth Distance (km) Brightness Sun altitude
Rises 19:09:50 0° 209° (SSW) 2,472 10.6 -26.2°
Reaches altitude 10° 19:12:45 10° 238° (WSW) 1,608 9.9 -26.8°
Maximum altitude 19:14:28 13° 268° (W) 1,427 9.8 -27.1°
Drops below altitude 10° 19:16:12 10° 298° (WNW) 1,623 10.0 -27.5°
Sets 19:19:11 0° 326° (NNW) 2,515 10.6 -28.1°
